Weather History for Iron Mountain, MI

Change the Weather History Date:

Saturday, April 27, 2013

  Actual Average Record
Temperature  
Mean Temperature 52 °F -  
Max Temperature 73 °F 62 °F 87 °F (1952)
Min Temperature 32 °F 33 °F 17 °F (1940)
Degree Days  
Heating Degree Days 12    
Growing Degree Days 2 (Base 50)    
Moisture  
Dew Point 40 °F    
Average Humidity 65    
Maximum Humidity 96    
Minimum Humidity 31    
Precipitation  
Precipitation 0.00 in - - ()
Sea Level Pressure  
Sea Level Pressure 30.08 in    
Wind  
Wind Speed 4 mph (SSE)    
Max Wind Speed 13 mph    
Max Gust Speed 21 mph    
Visibility 10 miles    
Events      
Averages and records for this station are not official NWS values.
T = Trace of Precipitation, MM = Missing Value Source: NWS Daily Summary

Daily Weather History Graph

Daily Weather History Graph

Search for Another Location

Airport:

Trip Planner

Search our weather history database for the weather conditions in past years. The results will help you decide how hot, cold, wet, or windy it might be!

Date:

Astronomy

Apr. 27, 2013 Rise Set
Actual Time 5:45 AM CDT 7:55 PM CDT
Civil Twilight 5:13 AM CDT 8:27 PM CDT
Nautical Twilight 4:33 AM CDT 9:08 PM CDT
Astronomical Twilight 3:48 AM CDT 9:53 PM CDT
Moon 10:30 PM CDT (4/27) 6:59 AM CDT (4/27)
Length of Visible Light 15h 14m
Length of Day
14h 09m
Waning Gibbous, 95% of the Moon is Illuminated
Apr 27
Waning Gibbous
May 2
Last Quarter
May 9
New
May 17
First Quarter
May 24
Full

Hourly Weather History & Observations

Time (CDT) Temp. Windchill Dew Point Humidity Pressure Visibility Wind Dir Wind Speed Gust Speed Precip Events Conditions
12:54 AM 36.0 °F - 33.1 °F 89% 30.16 in 10.0 mi Calm Calm - N/A   Clear
1:54 AM 34.0 °F - 30.9 °F 89% 30.15 in 10.0 mi Calm Calm - N/A   Clear
2:54 AM 33.1 °F - 30.9 °F 92% 30.15 in 10.0 mi Calm Calm - N/A   Mostly Cloudy
3:54 AM 33.1 °F - 32.0 °F 96% 30.15 in 10.0 mi Calm Calm - N/A   Clear
4:54 AM 32.0 °F 27.5 °F 30.9 °F 96% 30.15 in 10.0 mi SSE 4.6 mph - N/A   Clear
5:54 AM 32.0 °F - 30.0 °F 92% 30.15 in 8.0 mi Calm Calm - N/A   Clear
6:54 AM 36.0 °F - 34.0 °F 93% 30.16 in 10.0 mi Calm Calm - N/A   Clear
7:54 AM 44.1 °F - 37.0 °F 76% 30.16 in 10.0 mi Calm Calm - N/A   Clear
8:54 AM 52.0 °F - 41.0 °F 66% 30.14 in 10.0 mi ESE 3.5 mph - N/A   Clear
9:54 AM 59.0 °F - 44.1 °F 58% 30.13 in 10.0 mi SE 4.6 mph - N/A   Clear
10:54 AM 64.0 °F - 45.0 °F 50% 30.13 in 10.0 mi SE 9.2 mph - N/A   Clear
11:54 AM 66.9 °F - 44.1 °F 44% 30.11 in 10.0 mi Variable 4.6 mph - N/A   Clear
12:54 PM 69.1 °F - 43.0 °F 39% 30.09 in 10.0 mi South 9.2 mph 16.1 mph N/A   Partly Cloudy
1:54 PM 70.0 °F - 41.0 °F 35% 30.06 in 10.0 mi South 8.1 mph - N/A   Scattered Clouds
2:54 PM 73.0 °F - 41.0 °F 31% 30.05 in 10.0 mi SW 9.2 mph 16.1 mph N/A   Mostly Cloudy
3:54 PM 69.1 °F - 44.1 °F 40% 30.04 in 10.0 mi South 12.7 mph 18.4 mph N/A   Mostly Cloudy
4:54 PM 69.1 °F - 45.0 °F 42% 30.02 in 10.0 mi South 11.5 mph 20.7 mph N/A   Overcast
5:54 PM 68.0 °F - 45.0 °F 43% 30.01 in 10.0 mi South 9.2 mph - N/A   Overcast
6:54 PM 64.9 °F - 46.0 °F 50% 30.00 in 10.0 mi South 11.5 mph 18.4 mph N/A   Scattered Clouds
7:54 PM 62.1 °F - 46.0 °F 56% 30.01 in 10.0 mi South 6.9 mph - N/A   Overcast
8:54 PM 60.1 °F - 46.0 °F 60% 30.01 in 10.0 mi South 8.1 mph - N/A   Clear
9:54 PM 55.9 °F - 46.0 °F 69% 30.00 in 10.0 mi SE 6.9 mph - N/A   Clear
10:54 PM 53.1 °F - 45.0 °F 74% 30.00 in 10.0 mi SE 4.6 mph - N/A   Clear
11:54 PM 52.0 °F - 45.0 °F 77% 29.99 in 10.0 mi ESE 4.6 mph - N/A   Clear